Location: Unspecified
(0.0000°N, 0.0000°E)
Time: 12:39:39
(UTC+00:00)

CUBESAT XI-V - Visible Passes

Search period start: 21 January 2018 00:00
Search period end: 31 January 2018 00:00
Orbit: 670 x 694 km, 97.9° (Epoch: 20 January)

Date Brightness Start Highest point End Pass type
(mag) Time Alt. Az. Time Alt. Az. Time Alt. Az.
21 Jan ? 03:26:01 10° SSE 03:27:01 16° SE 03:27:01 16° SE visible
22 Jan ? 04:02:09 10° S 04:03:44 21° S 04:03:44 21° S visible
23 Jan ? 04:39:45 10° SSW 04:40:27 13° SW 04:40:27 13° SW visible
24 Jan ? 03:37:36 10° SSE 03:38:43 17° SSE 03:38:43 17° SSE visible
25 Jan ? 04:14:10 10° S 04:15:26 18° SSW 04:15:26 18° SSW visible
26 Jan ? 03:13:39 10° SE 03:13:42 10° SE 03:13:42 10° SE visible
27 Jan ? 03:49:20 10° S 03:50:25 17° S 03:50:25 17° S visible
28 Jan ? 04:26:22 10° SSW 04:27:08 14° SSW 04:27:08 14° SSW visible
29 Jan ? 03:25:04 10° SSE 03:25:24 12° SSE 03:25:24 12° SSE visible
30 Jan ? 04:01:13 10° S 04:02:07 16° S 04:02:07 16° S visible
